User: anonymous
Location: Gipe Farm
(40.9466°N, 95.5370°W)
Time: 12:30:35
(UTC-05:00)
Language:

Cosmos 1842 - Orbit

View from above orbital plane
View from above orbital plane
View from above satellite
View from above satellite

Ground track
Ground track

The orbit data is extracted from the following two-line orbital elements,

1 17911U 87038A   14244.76673272  .00002819  00000-0  18774-3 0  5569
2 17911 082.4896 109.3002 0013877 113.9905 246.2777 15.06673773487994
Epoch (UTC): 01 September 2014 18:24:05
Eccentricity: 0.0013877
inclination: 82.4896°
perigee height: 537 km
apogee height: 556 km
right ascension of ascending node: 109.3002°
argument of perigee: 113.9905°
revolutions per day: 15.06673773
mean anomaly at epoch: 246.2777°
orbit number at epoch: 48799

The dashed part of the orbit path shows where the satellite is in the earth's shadow,  

DLR